Vorticity
nan nan nan nan nan nan nan nan nan nan nan nan nan nan nan nan nan nan nan nan nan nan nan nan nan nan nan nan nan nan nan nan nan nan nan nan nan nan nan nan nan nan nan nan nan nan nan
nan 6 6 6 6 6 6 7 7 8 8 8 9 9 9 8 8 9 9 9 10 10 8 5 5 13 12 6 6 6 12 13 10 7 8 8 7 6 6 9 8 7 9 7 5 6 nan
nan 6 6 6 6 7 7 7 7 7 8 9 8 9 9 9 9 9 9 11 11 9 6 7 9 12 10 6 0 6 12 12 10 6 6 6 6 8 10 12 11 7 4 7 9 7 nan
nan 6 6 6 6 7 8 7 7 8 8 8 8 9 10 11 10 7 9 11 9 8 8 10 11 10 6 8 7 6 10 11 11 6 6 7 6 8 10 7 6 5 7 8 8 5 nan
nan 6 6 7 7 7 7 7 7 8 8 8 9 9 11 12 11 9 9 11 14 13 11 10 10 8 5 9 11 12 12 8 7 8 8 6 11 10 7 5 4 8 6 3 8 10 nan
nan 6 7 6 7 7 7 7 8 7 8 8 8 9 11 12 11 10 14 18 16 14 13 7 6 7 12 9 7 12 13 10 8 8 9 11 8 6 7 9 8 5 6 9 11 8 nan
nan 7 7 7 7 7 7 7 7 8 8 8 8 9 10 11 10 11 17 16 13 12 8 6 2 4 7 7 8 8 11 8 8 9 10 8 8 9 5 6 9 7 7 5 10 12 nan
nan 6 6 7 7 7 7 7 7 8 8 8 9 9 10 8 8 19 15 9 8 7 10 10 6 7 8 10 6 8 12 8 8 7 4 10 10 11 9 8 6 6 6 7 9 13 nan
nan 6 7 7 7 7 7 7 8 8 8 8 9 9 9 8 19 18 11 6 6 9 11 13 17 11 12 8 7 11 7 7 8 9 9 3 9 10 5 7 9 4 9 6 9 9 nan
nan 6 6 7 7 7 7 8 8 8 7 8 9 10 9 16 18 10 7 5 9 10 11 15 10 11 11 5 10 13 7 6 11 8 6 8 10 10 5 3 10 5 8 5 8 4 nan
nan 6 7 7 7 7 7 7 8 8 9 9 9 10 13 21 12 8 5 7 13 10 9 14 8 11 12 4 8 13 8 10 12 9 8 8 11 11 9 8 1 13 12 13 11 5 nan
nan 6 7 6 7 7 8 8 8 8 8 8 9 12 19 17 10 6 7 12 12 9 13 9 8 8 6 7 7 9 8 10 10 9 8 9 6 14 13 13 5 5 6 11 10 11 nan
nan 7 6 6 8 7 7 8 8 8 9 9 11 18 19 9 8 9 10 11 10 8 11 12 9 8 7 8 8 8 7 7 7 8 8 12 8 5 15 8 11 7 1 5 7 6 nan
nan 6 6 8 8 7 8 8 8 9 9 9 16 27 19 10 6 8 11 10 8 7 6 8 10 13 11 8 9 10 6 7 8 7 10 8 15 13 8 9 8 12 -0 -3 5 9 nan
nan 7 7 7 7 8 7 8 8 8 9 15 28 22 11 14 12 8 10 8 8 7 8 8 10 12 8 12 12 10 10 10 15 11 2 8 8 13 16 16 1 5 16 1 1 10 nan
nan 6 8 7 7 8 8 8 8 9 11 26 26 11 12 13 10 8 8 7 9 9 8 10 10 7 8 9 11 10 10 8 9 14 12 9 12 9 14 20 13 4 5 12 11 10 nan
nan 7 7 7 8 7 8 8 8 9 16 31 17 11 13 10 6 9 10 8 9 10 10 7 7 8 9 10 10 7 6 8 12 10 10 11 11 8 9 17 19 12 1 1 9 10 nan
nan 7 6 8 7 7 7 8 8 9 22 26 12 9 11 9 8 9 9 7 9 10 8 10 11 12 10 8 9 11 10 8 9 11 10 9 8 11 10 13 7 13 29 11 4 10 nan
nan 7 6 8 8 7 7 8 8 12 23 18 11 9 9 11 10 7 7 9 11 12 9 9 9 9 11 9 10 11 10 12 8 7 9 10 8 5 13 12 11 7 12 13 11 20 nan
nan 7 8 9 8 8 8 7 8 12 23 21 8 9 12 9 10 10 11 10 6 9 13 10 9 9 10 10 8 7 11 9 9 12 12 5 8 9 8 5 4 4 3 11 9 2 nan
nan 7 9 8 7 7 7 7 8 13 27 22 10 13 8 6 8 10 10 11 10 10 13 9 9 11 10 9 11 10 8 10 11 9 8 10 10 10 6 7 5 5 7 10 7 7 nan
nan 8 8 7 7 8 8 7 8 15 27 19 7 10 12 12 10 10 11 9 10 11 13 13 10 10 11 10 9 7 9 10 7 9 10 9 10 11 12 14 9 11 14 12 11 9 nan
nan 7 9 7 7 7 8 8 9 17 25 13 10 11 10 8 12 11 10 10 8 10 9 9 9 9 11 9 9 11 8 5 6 4 8 10 9 10 11 11 11 20 22 14 12 15 nan
nan 8 8 7 7 8 8 9 9 14 21 13 10 10 9 11 10 7 10 11 8 10 9 6 11 12 8 11 12 14 14 12 9 8 4 2 8 8 9 7 15 11 10 19 17 8 nan
nan 8 6 7 8 9 8 9 9 10 15 17 10 10 11 11 10 7 9 12 11 13 12 9 10 10 9 12 12 13 13 17 19 16 17 9 3 9 16 5 2 11 13 14 11 7 nan
nan 6 6 7 8 9 8 8 9 9 15 18 11 10 10 11 9 11 10 11 11 11 11 11 8 10 14 12 11 12 9 7 7 15 21 20 10 2 5 12 10 8 5 7 11 5 nan
nan 5 6 7 6 6 6 7 9 8 17 18 10 11 11 10 7 10 11 9 10 12 11 7 8 13 13 12 11 10 10 11 12 11 8 12 19 14 6 2 7 13 9 10 11 6 nan
nan 5 6 6 5 5 7 7 7 9 16 18 11 10 11 10 11 11 10 9 10 11 9 8 12 11 12 12 11 11 11 10 13 11 12 11 11 9 14 17 15 7 13 13 5 10 nan
nan nan nan nan nan nan nan nan nan nan nan nan nan nan nan nan nan nan nan nan nan nan nan nan nan nan nan nan nan nan nan nan nan nan nan nan nan nan nan nan nan nan nan nan nan nan nan
CAPE
17 14 12 11 8 11 14 14 13 11 12 9 9 13 10 6 3 4 2 4 6 6 4 4 11 26 3 2 2 0 161 32 400 4 0 21 31 6 0 0 0 0 0 0 0 0 0
12 11 10 7 10 11 11 12 10 12 7 10 10 4 12 13 4 3 5 8 3 4 0 3 5 22 1 0 0 0 0 30 226 0 3 12 27 7 2 0 0 0 0 0 0 0 0
8 9 6 9 11 12 11 12 14 13 13 14 11 11 10 4 6 5 9 7 3 1 2 9 1 30 17 0 0 0 0 125 110 13 1 39 77 56 0 0 0 0 0 0 0 0 0
6 6 7 5 8 12 11 15 11 12 11 9 17 10 6 4 5 4 2 2 0 0 1 2 0 24 1 0 0 0 0 37 15 19 30 12 0 0 0 0 0 0 0 0 0 0 0
4 4 7 8 8 9 10 9 11 13 15 7 11 8 12 12 5 0 0 0 0 0 5 0 8 4 0 0 0 0 0 83 70 7 0 1 0 1 0 0 0 0 0 0 0 0 0
6 5 7 7 9 10 11 12 9 10 11 10 8 9 7 9 0 0 0 0 0 0 2 13 10 0 0 0 0 0 0 28 22 17 0 0 0 0 0 0 0 0 0 0 0 0 0
5 9 9 9 10 10 11 11 9 10 6 6 7 5 12 1 0 0 0 0 0 0 18 0 0 0 0 0 0 0 0 2 0 0 0 0 0 0 0 0 0 0 0 0 0 0 0
5 4 8 9 10 10 9 10 10 7 8 4 4 3 2 0 0 0 0 0 2 4 3 0 0 0 2 0 0 0 0 7 0 0 0 0 0 0 0 0 0 0 0 0 0 0 0
7 8 8 10 10 8 9 8 7 6 7 4 1 0 0 0 0 0 0 0 0 0 0 0 0 0 0 0 0 0 0 0 0 0 0 0 0 0 0 0 0 0 0 0 0 0 0
7 8 8 8 9 10 9 8 7 6 5 3 2 0 0 0 0 0 0 0 0 0 0 0 0 0 0 1 0 0 0 0 0 0 0 0 0 0 0 0 0 0 0 0 0 0 0
6 7 8 8 7 7 8 7 7 6 5 3 1 0 0 1 0 0 0 0 0 0 0 0 0 0 0 0 0 0 0 4 0 0 0 0 0 0 0 0 0 0 0 0 0 0 0
5 5 7 8 9 9 8 9 7 5 4 3 1 0 0 0 0 0 0 0 0 0 0 0 0 0 0 0 0 0 0 0 0 0 0 0 0 0 0 0 0 0 1 0 0 0 0
4 5 6 9 9 10 11 9 10 7 6 2 0 0 0 0 0 0 0 0 0 0 0 0 0 0 0 0 0 0 24 7 10 15 0 0 0 0 0 0 0 0 7 12 1 1 0
5 6 4 8 8 9 9 8 6 5 3 0 0 0 0 0 0 0 0 0 0 0 0 0 0 0 0 0 0 0 7 4 1 0 16 0 0 0 0 0 0 0 0 2 9 0 0
5 4 7 5 11 10 10 8 6 4 2 1 0 0 0 0 0 0 0 0 0 0 0 0 0 0 0 0 3 2 5 1 0 12 18 71 1 0 0 0 0 0 0 0 0 0 0
3 8 8 6 11 9 10 8 7 4 0 0 0 0 0 0 0 0 2 0 0 0 0 0 0 0 0 0 6 11 31 0 1 0 25 27 48 0 0 0 0 0 0 0 0 1 1
4 7 6 9 8 8 6 7 3 2 0 0 0 0 0 0 0 2 9 0 0 0 0 0 0 0 0 0 7 0 3 0 0 0 1 2 6 0 1 0 0 0 0 0 0 0 0
2 6 6 6 5 9 8 7 3 3 0 0 0 0 0 0 0 0 1 1 0 0 0 0 0 0 0 0 0 2 0 1 0 0 0 0 1 0 0 0 1 2 0 0 3 0 0
0 5 8 6 7 11 8 7 5 5 0 0 0 0 0 1 0 0 0 0 1 5 0 0 0 0 0 0 0 0 1 0 0 2 3 3 0 0 0 0 3 1 3 2 2 1 0
9 7 9 9 9 6 6 5 4 1 0 0 0 0 0 0 0 1 2 0 0 0 9 2 0 0 0 0 0 0 0 0 0 0 8 11 0 1 0 0 0 0 0 8 1 0 0
3 4 8 10 6 4 7 10 5 1 0 0 0 0 0 0 0 0 0 0 1 0 2 0 0 0 0 0 0 0 0 0 0 1 0 1 2 0 0 0 0 0 0 0 25 0 0
0 2 5 4 4 3 6 7 3 1 0 0 0 0 0 0 0 0 0 0 0 0 0 0 0 0 0 0 0 0 0 0 0 0 1 0 0 0 2 0 0 0 0 10 6 0 0
0 1 4 7 4 4 7 9 7 5 0 0 0 0 0 0 0 0 0 0 0 0 0 0 0 0 0 0 0 0 0 0 0 0 0 0 0 0 0 0 0 0 0 0 0 0 0
0 4 8 6 0 6 5 8 12 7 0 0 0 0 0 0 0 0 0 0 0 0 0 0 0 0 0 0 0 0 0 0 0 0 0 0 0 0 0 0 0 0 0 0 0 0 0
0 4 1 0 3 5 5 9 11 12 12 0 0 0 0 0 0 0 0 0 0 0 0 0 0 0 0 0 0 0 0 0 0 0 0 0 0 0 0 0 0 0 0 0 0 0 0
0 0 0 0 5 8 8 6 12 12 13 0 0 0 0 0 0 0 0 0 0 0 0 0 0 0 0 0 0 0 0 0 0 0 0 0 0 0 0 10 0 0 0 0 0 0 0
1 0 0 1 2 4 7 8 9 8 7 0 0 0 0 0 0 0 0 0 0 0 0 0 0 0 0 0 0 0 0 0 0 0 0 3 2 0 0 1 0 0 0 0 0 0 0
0 0 0 1 8 18 31 28 9 10 4 0 0 0 0 0 0 0 0 0 0 0 0 0 0 0 0 0 1 0 0 0 0 0 0 0 0 3 0 0 0 0 0 0 0 0 0
0 0 0 3 2 8 35 32 19 13 7 1 0 0 0 0 0 0 0 0 0 0 0 0 0 0 0 0 0 0 0 0 0 1 0 0 0 0 0 0 0 0 0 0 0 0 0